Location: Ikejouine
(32.5142°N, 5.4699°W)
Time: 21:05:22
(UTC+00:00)

H-2A R/B - Pass Details

Date: 09 April 2020
Orbit: 273 x 32781 km, 28.4° (Epoch: 02 June)

Event Time Altitude Azimuth Distance (km) Brightness Sun altitude
Rises 18:23:45 0° 275° (W) 16,825 12.1 4.2°
Reaches altitude 10° 18:48:11 10° 275° (W) 9,412 9.7 -0.9°
Maximum altitude 19:08:17 53° 205° (SSW) 1,392 3.5 -5.1°
Drops below altitude 10° 19:12:03 10° 126° (SE) 1,926 3.5 -5.8°
Enters shadow 19:12:33 - 123° (ESE) 2,136 3.7 -5.9°
